Weather History for KSJN - December, 2013

Change the Weather History Date:

Thursday, December 19, 2013

  Actual Average (KSOW) Record (KSOW)
Temperature  
Mean Temperature 37 °F -  
Max Temperature 44 °F 41 °F 61 °F (1969)
Min Temperature 30 °F 23 °F -5 °F (1970)
Degree Days  
Heating Degree Days 28    
Moisture  
Dew Point 19 °F    
Average Humidity 41    
Maximum Humidity 89    
Minimum Humidity 19    
Precipitation  
Precipitation 0.31 in - - ()
Sea Level Pressure  
Sea Level Pressure 29.69 in    
Wind  
Wind Speed 9 mph (SSW)    
Max Wind Speed 24 mph    
Max Gust Speed 34 mph    
Visibility 10 miles    
Events Snow    
Averages and records for this station are not official NWS values.
T = Trace of Precipitation, MM = Missing Value Source: NWS Daily Summary

Daily Weather History Graph

Daily Weather History Graph

Search for Another Location

Airport or City:

Trip Planner

Search our weather history database for the weather conditions in past years. The results will help you decide how hot, cold, wet, or windy it might be!

Date:

Astronomy

Dec. 19, 2013 Rise Set
Actual Time 7:19 AM MST 5:10 PM MST
Civil Twilight 6:51 AM MST 5:38 PM MST
Nautical Twilight 6:19 AM MST 6:09 PM MST
Astronomical Twilight 5:49 AM MST 6:40 PM MST
Moon 7:33 PM MST (12/19) 8:44 AM MST (12/19)
Length of Visible Light 10h 46m
Length of Day
9h 50m
Waning Gibbous, 95% of the Moon is Illuminated
Dec 19
Waning Gibbous
Dec 25
Last Quarter
Jan 1
New
Jan 7
First Quarter
Jan 15
Full

Hourly Weather History & Observations

Time (MST) Temp. Windchill Dew Point Humidity Pressure Visibility Wind Dir Wind Speed Gust Speed Precip Events Conditions
12:54 AM 37.0 °F 32.4 °F 19.0 °F 48% 29.80 in 10.0 mi NW 5.8 mph - N/A   Clear
1:54 AM 37.0 °F 31.0 °F 19.9 °F 50% 29.76 in 10.0 mi South 8.1 mph - N/A   Clear
2:54 AM 44.1 °F 42.5 °F 19.0 °F 37% 29.71 in 10.0 mi South 3.5 mph - N/A   Clear
3:54 AM 42.1 °F 36.1 °F 21.0 °F 43% 29.72 in 10.0 mi SW 10.4 mph - N/A   Clear
4:54 AM 41.0 °F 35.8 °F 21.0 °F 45% 29.70 in 10.0 mi WSW 8.1 mph - N/A   Clear
5:54 AM 41.0 °F 39.0 °F 19.9 °F 43% 29.75 in 10.0 mi SSE 3.5 mph - N/A   Clear
6:54 AM 37.9 °F 30.9 °F 21.0 °F 51% 29.78 in 10.0 mi West 10.4 mph - N/A   Clear
7:54 AM 36.0 °F 32.1 °F 21.0 °F 55% 29.78 in 10.0 mi SSE 4.6 mph - N/A   Clear
8:54 AM 43.0 °F 39.5 °F 21.0 °F 42% 29.75 in 10.0 mi East 5.8 mph - N/A   Clear
9:54 AM 48.9 °F - 21.0 °F 33% 29.74 in 10.0 mi NE 3.5 mph - N/A   Clear
10:54 AM 52.0 °F - 19.9 °F 28% 29.71 in 10.0 mi ENE 6.9 mph - N/A   Clear
11:54 AM 55.0 °F - 15.1 °F 21% 29.65 in 10.0 mi WSW 18.4 mph 24.2 mph N/A   Clear
12:54 PM 55.9 °F - 14.0 °F 19% 29.60 in 10.0 mi SW 20.7 mph 29.9 mph N/A   Clear
1:54 PM 55.9 °F - 15.1 °F 20% 29.59 in 10.0 mi SW 18.4 mph 24.2 mph N/A   Clear
2:54 PM 55.0 °F - 14.0 °F 20% 29.57 in 10.0 mi WSW 24.2 mph 34.5 mph N/A   Clear
3:54 PM 54.0 °F - 14.0 °F 21% 29.60 in 10.0 mi SW 17.3 mph 32.2 mph N/A   Clear
4:54 PM 50.0 °F - 15.1 °F 25% 29.62 in 10.0 mi SW 13.8 mph - N/A   Clear
5:54 PM 44.1 °F 39.5 °F 15.1 °F 31% 29.65 in 10.0 mi SW 8.1 mph - N/A   Clear
6:54 PM 35.1 °F 31.0 °F 15.1 °F 44% 29.72 in 10.0 mi West 4.6 mph - N/A   Clear
7:54 PM 32.0 °F - 15.1 °F 50% 29.74 in 10.0 mi Calm Calm - N/A   Clear
8:54 PM 30.9 °F - 15.1 °F 52% 29.72 in 10.0 mi Calm Calm - N/A   Clear
9:54 PM 30.9 °F 27.5 °F 17.1 °F 57% 29.69 in 10.0 mi South 3.5 mph - N/A   Clear
10:54 PM 35.1 °F 31.0 °F 18.0 °F 50% 29.66 in 10.0 mi South 4.6 mph - N/A   Clear
11:54 PM 34.0 °F - 18.0 °F 52% 29.65 in 10.0 mi Calm Calm - N/A   Clear